Location: Lawrence Hall of Science
(37.8785°N, 122.2415°W)
Time: 10:30:41
(UTC-07:00)

Cosmos 2151 - Visible Passes

Search period start: 02 September 2014 00:00
Search period end: 12 September 2014 00:00
Orbit: 586 x 608 km, 82.5° (Epoch: 01 September)

Date Brightness Start Highest point End Pass type
(mag) Time Alt. Az. Time Alt. Az. Time Alt. Az.
02 Sep 6.1 23:16:36 10° NNW 23:16:58 12° NNW 23:16:58 12° NNW visible
03 Sep 5.5 21:50:17 10° NNE 21:50:44 12° NNE 21:50:44 12° NNE visible
03 Sep 6.3 23:27:25 10° NNW 23:27:25 10° NW 23:27:25 10° NW visible
04 Sep 5.3 22:00:14 10° NNE 22:01:12 16° NNE 22:01:12 16° NNE visible
05 Sep 5.2 22:10:25 10° N 22:11:41 19° N 22:11:41 19° N visible
06 Sep 5.2 22:20:47 10° N 22:22:11 21° N 22:22:11 21° N visible
07 Sep 5.4 22:31:18 10° NNW 22:32:43 20° NNW 22:32:43 20° NNW visible
08 Sep 5.0 21:05:21 10° NNE 21:06:33 15° NE 21:06:33 15° NE visible
08 Sep 5.7 22:42:01 10° NNW 22:43:15 17° NW 22:43:15 17° NW visible
09 Sep 4.6 21:15:10 10° NNE 21:17:08 21° NE 21:17:08 21° NE visible
09 Sep 6.0 22:53:01 10° NW 22:53:50 13° NW 22:53:50 13° NW visible
10 Sep 4.2 21:25:16 10° N 21:27:44 30° NNE 21:27:44 30° NNE visible
11 Sep 3.9 21:35:33 10° N 21:38:22 40° N 21:38:22 40° N visible
